Regional Weather Roundup
Issued by NWS

Home | Current Version | Previous Version | Text Only | Print | Product List | Glossary Off
Versions: 1 2 3 4 5 6 7 8 9 10 11 12 13 14 15 16 17 18 19 20 21 22 23 24 25 26 27 28 29 30 31 32 33 34 35 36 37 38 39 40 41 42 43 44 45 46 47 48 49 50

000
ASUS45 KBOU 301207
RWRCO

WEATHER ROUNDUP FOR COLORADO
NATIONAL WEATHER SERVICE DENVER/BOULDER CO
600 AM MDT TUE SEP 30 2014

NOTE: "FAIR" INDICATES FEW OR NO CLOUDS BELOW 12000 FEET WITH NO
SIGNIFICANT WEATHER AND/OR OBSTRUCTIONS TO VISIBILITY.

COZ001>005-013-030-031-301300-
...NORTHWEST COLORADO...

CITY           SKY/WX    TMP DP  RH WIND       PRES   REMARKS
CRAIG          CLOUDY    47  38  71 SW10      29.99F
HAYDEN         CLOUDY    43  37  81 CALM      29.99F
MEEKER         NOT AVBL
MOUNT WERNER   NOT AVBL
STEAMBOAT SPGS CLOUDY    41  39  93 CALM      30.00S
WALDEN         CLOUDY    36  32  87 S16       29.98S
$$

COZ006>008-011-301300-
...WEST CENTRAL VALLEYS...

CITY           SKY/WX    TMP DP  RH WIND       PRES   REMARKS
GRAND JUNCTION CLOUDY    45  42  89 SE14      30.00F
MONTROSE       CLOUDY    40  39  97 CALM      30.07S
EAGLE          MOCLDY    43  43 100 E5        30.07R
RIFLE          PTCLDY    41  39  93 S3        30.04S
DELTA          FLURRIES  43  40  91 NE3       30.05F
NUCLA          MOCLDY    43  39  87 SE5       30.09S
$$

COZ017>023-064>068-301300-
...SOUTHWEST COLORADO...

CITY           SKY/WX    TMP DP  RH WIND       PRES   REMARKS
DURANGO        PTCLDY    37  35  92 CALM      30.09S
CORTEZ         CLEAR     38  37  97 CALM      30.07S
PAGOSA SPRINGS PTCLDY    33  33 100 CALM      30.12F
TELLURIDE      CLOUDY   N/A N/A N/A CALM      30.16S
WOLF CREEK PAS PTCLDY    23  23 100 SW12      30.21S WCI  12
$$

COZ009-010-012-014-032>034-037-058>063-301300-
...CENTRAL COLORADO...

CITY           SKY/WX    TMP DP  RH WIND       PRES   REMARKS
ASPEN          CLOUDY    37  35  92 SW5       30.07S
BUENA VISTA    PTCLDY    45  26  46 W15G28    30.02R
COPPER MTN     CLOUDY    30  27  86 W22G31    30.14S WCI  17
BERTHOUD PASS  CLOUDY    23  19  86 NW41G49   30.06F WCI   3
COTTONWOOD PAS PTCLDY    41  23  48 W22G37    30.07R
GUNNISON       PTCLDY    34  30  86 N5        30.11S WCI  30
KREMMLING      CLOUDY    41  34  75 SW7       30.04S
LEADVILLE      CLOUDY    35  24  64 VRB3      30.09S
MONARCH PASS   CLOUDY    27  27 100 MISG      30.23F FOG
SALIDA         PTCLDY    47  29  48 SW16G24   30.09S
SUNLIGHT       CLOUDY    32  32 100 CALM      30.14S FOG
WILKERSON PASS NOT AVBL
$$

COZ069>075-301300-
...SAN LUIS VALLEY/SANGRE DE CRISTO MOUNTAINS...

CITY           SKY/WX    TMP DP  RH WIND       PRES   REMARKS
ALAMOSA        CLEAR     30  28  92 SW5       30.08F WCI  25
LA VETA PASS   NOT AVBL
SAGUACHE       PTCLDY    36  30  80 N5        30.09S
$$

COZ035-036-038>040-301300-
...NORTHERN COLORADO FRONT RANGE...

CITY           SKY/WX    TMP DP  RH WIND       PRES   REMARKS
DENVER INTL AP PTCLDY    43  38  82 S8        29.83S
DMNS CITY PARK   N/A     44  40  86 S6        29.84S
AURORA         PTCLDY    44  37  78 S10       29.86R
FRONT RANGE AP PTCLDY    45  41  87 S8        29.85S
ERIE MUNI ARPT CLEAR     43  42  95 S5        29.81S
BOULDER MUN AP CLEAR     45  41  87 W3        29.81R
CENTENNIAL     PTCLDY    43  36  76 S10       29.86S
BROOMFIELD     CLEAR     54  32  43 SW22G31   29.83S
FORT COLLINS   PTCLDY    45  41  87 W6        29.83R
LONGMONT       PTCLDY    46  44  93 CALM      29.82S
$$

COZ041-046-047-076>085-087-088-301300-
...PIKES PEAK/PALMER DIVIDE AND SOUTHERN FOOTHILLS...

CITY           SKY/WX    TMP DP  RH WIND       PRES   REMARKS
COLO. SPRINGS  PTCLDY    43  35  73 E6        29.92S
A. F. ACADEMY  CLEAR     44  31  61 VRB3      29.91F
ELLICOTT       NOT AVBL
FALCON         CLEAR     39  32  76 CALM      29.94S
FORT CARSON    CLEAR     40  35  82 N6        29.90R
LIMON          CLEAR     37  36  96 CALM      29.89S
MONUMENT HILL  CLEAR     43  30  61 SW12      29.91S
TRINIDAD       CLEAR     43  31  62 NW12      29.93R
$$

COZ042>045-048>051-090-091-301300-
...NORTHEAST COLORADO...

CITY           SKY/WX    TMP DP  RH WIND       PRES   REMARKS
GREELEY ARPT   MOCLDY    45  37  76 E5        29.82S
AKRON          CLOUDY    49  45  86 S9        29.83S
BURLINGTON     PTCLDY    44  41  89 SW7       29.87S
WRAY           PTCLDY    51  48  91 SW6       29.83R
STERLING       CLOUDY    50  48  93 SW9       29.79S
HOLYOKE        PTCLDY    52  46  82 S9        29.81R
FORT MORGAN    CLOUDY    47  42  84 S3        29.82F
$$

COZ086-089-092>099-301300-
...SOUTHEAST COLORADO...

CITY           SKY/WX    TMP DP  RH WIND       PRES   REMARKS
PUEBLO         CLEAR     44  39  82 SE6       29.89R
LA JUNTA       CLEAR     46  42  86 E7        29.88S
LAMAR          CLEAR     46  44  93 CALM      29.85S
SPRINGFIELD      N/A     45  43  93 NW5       29.88R
$$


USA.gov is the U.S. government's official web portal to all federal, state and local government web resources and services.